Time,TemperatureF,DewpointF,PressureIn,WindDirection,WindDirectionDegrees,WindSpeedMPH,WindSpeedGustMPH,Humidity,HourlyPrecipIn,Conditions,Clouds,dailyrainin,SoftwareType,DateUTC
2013-04-09 00:01:00,71.4,63.0,30.11,ENE,74,2.0,7.0,74,0.00,,,0.00,weatherlink.com 1.10,2013-04-09 04:01:00,
2013-04-09 00:31:00,70.5,63.0,30.11,ESE,111,5.0,5.0,76,0.00,,,0.00,weatherlink.com 1.10,2013-04-09 04:31:00,
2013-04-09 00:46:00,70.2,63.0,30.12,East,92,1.0,6.0,77,0.00,,,0.00,weatherlink.com 1.10,2013-04-09 04:46:00,
2013-04-09 01:01:00,69.9,63.0,30.11,East,99,5.0,5.0,78,0.00,,,0.00,weatherlink.com 1.10,2013-04-09 05:01:00,
2013-04-09 01:16:00,69.6,63.0,30.11,ESE,103,2.0,3.0,79,0.00,,,0.00,weatherlink.com 1.10,2013-04-09 05:16:00,
2013-04-09 01:31:00,69.4,63.0,30.10,East,96,1.0,4.0,80,0.00,,,0.00,weatherlink.com 1.10,2013-04-09 05:31:00,
2013-04-09 01:46:00,69.0,63.0,30.09,ESE,103,2.0,4.0,81,0.00,,,0.00,weatherlink.com 1.10,2013-04-09 05:46:00,
2013-04-09 02:01:00,68.8,63.0,30.09,ESE,117,2.0,5.0,81,0.00,,,0.00,weatherlink.com 1.10,2013-04-09 06:01:00,
2013-04-09 02:16:00,68.7,63.0,30.09,SE,134,1.0,7.0,82,0.00,,,0.00,weatherlink.com 1.10,2013-04-09 06:16:00,
2013-04-09 02:31:00,68.3,63.0,30.08,East,91,2.0,3.0,83,0.00,,,0.00,weatherlink.com 1.10,2013-04-09 06:31:00,
2013-04-09 02:46:00,68.2,63.0,30.08,East,96,2.0,4.0,83,0.00,,,0.00,weatherlink.com 1.10,2013-04-09 06:46:00,
2013-04-09 03:01:00,67.8,63.0,30.07,ESE,104,1.0,3.0,84,0.00,,,0.00,weatherlink.com 1.10,2013-04-09 07:01:00,
2013-04-09 03:16:00,67.4,63.0,30.07,ENE,75,0.0,2.0,86,0.00,,,0.00,weatherlink.com 1.10,2013-04-09 07:16:00,
2013-04-09 03:32:00,67.0,63.0,30.06,East,100,1.0,2.0,86,0.00,,,0.00,weatherlink.com 1.10,2013-04-09 07:32:00,
2013-04-09 03:47:00,66.3,63.0,30.06,East,88,0.0,1.0,88,0.00,,,0.00,weatherlink.com 1.10,2013-04-09 07:47:00,
2013-04-09 04:02:00,65.9,63.0,30.06,East,82,1.0,2.0,89,0.00,,,0.00,weatherlink.com 1.10,2013-04-09 08:02:00,
2013-04-09 04:17:00,66.0,63.0,30.06,ESE,105,0.0,2.0,89,0.00,,,0.00,weatherlink.com 1.10,2013-04-09 08:17:00,
2013-04-09 04:32:00,65.8,63.0,30.06,East,92,0.0,1.0,89,0.00,,,0.00,weatherlink.com 1.10,2013-04-09 08:32:00,
2013-04-09 04:47:00,65.5,63.0,30.06,East,85,0.0,1.0,90,0.00,,,0.00,weatherlink.com 1.10,2013-04-09 08:47:00,
2013-04-09 05:02:00,65.3,62.0,30.06,East,84,0.0,0.0,90,0.00,,,0.00,weatherlink.com 1.10,2013-04-09 09:02:00,
2013-04-09 05:17:00,65.2,62.0,30.06,ESE,102,0.0,1.0,90,0.00,,,0.00,weatherlink.com 1.10,2013-04-09 09:17:00,
2013-04-09 05:32:00,65.1,63.0,30.06,East,97,0.0,0.0,91,0.00,,,0.00,weatherlink.com 1.10,2013-04-09 09:32:00,
2013-04-09 05:47:00,65.1,63.0,30.06,ENE,69,0.0,2.0,91,0.00,,,0.00,weatherlink.com 1.10,2013-04-09 09:47:00,
2013-04-09 06:02:00,65.0,62.0,30.07,ESE,103,0.0,2.0,91,0.00,,,0.00,weatherlink.com 1.10,2013-04-09 10:02:00,
2013-04-09 06:17:00,64.7,62.0,30.07,ESE,103,0.0,1.0,91,0.00,,,0.00,weatherlink.com 1.10,2013-04-09 10:17:00,
2013-04-09 06:32:00,64.7,62.0,30.07,East,80,0.0,0.0,92,0.00,,,0.00,weatherlink.com 1.10,2013-04-09 10:32:00,
2013-04-09 06:47:00,64.8,63.0,30.08,East,82,0.0,2.0,92,0.00,,,0.00,weatherlink.com 1.10,2013-04-09 10:47:00,
2013-04-09 07:02:00,64.8,63.0,30.08,East,82,0.0,1.0,92,0.00,,,0.00,weatherlink.com 1.10,2013-04-09 11:02:00,
2013-04-09 07:17:00,64.8,63.0,30.09,East,79,0.0,1.0,92,0.00,,,0.00,weatherlink.com 1.10,2013-04-09 11:17:00,
2013-04-09 07:32:00,64.6,62.0,30.09,East,79,0.0,0.0,92,0.00,,,0.00,weatherlink.com 1.10,2013-04-09 11:32:00,
2013-04-09 07:47:00,64.9,63.0,30.09,East,94,1.0,1.0,93,0.00,,,0.00,weatherlink.com 1.10,2013-04-09 11:47:00,
2013-04-09 08:02:00,66.3,64.0,30.09,ENE,75,1.0,4.0,91,0.00,,,0.00,weatherlink.com 1.10,2013-04-09 12:02:00,
2013-04-09 08:17:00,67.5,64.0,30.10,ENE,76,1.0,4.0,89,0.00,,,0.00,weatherlink.com 1.10,2013-04-09 12:17:00,
2013-04-09 08:32:00,68.6,65.0,30.10,East,85,2.0,6.0,88,0.00,,,0.00,weatherlink.com 1.10,2013-04-09 12:32:00,
2013-04-09 08:47:00,70.0,65.0,30.11,ENE,72,2.0,4.0,85,0.00,,,0.00,weatherlink.com 1.10,2013-04-09 12:47:00,
2013-04-09 09:02:00,71.6,67.0,30.11,ENE,73,4.0,7.0,84,0.00,,,0.00,weatherlink.com 1.10,2013-04-09 13:02:00,
2013-04-09 09:17:00,72.8,67.0,30.11,ENE,72,6.0,6.0,81,0.00,,,0.00,weatherlink.com 1.10,2013-04-09 13:17:00,
2013-04-09 09:32:00,72.6,66.0,30.11,ENE,71,5.0,6.0,80,0.00,,,0.00,weatherlink.com 1.10,2013-04-09 13:32:00,
2013-04-09 09:47:00,72.7,66.0,30.11,East,82,3.0,6.0,80,0.00,,,0.00,weatherlink.com 1.10,2013-04-09 13:47:00,
2013-04-09 10:02:00,73.0,66.0,30.12,ENE,75,5.0,5.0,78,0.00,,,0.00,weatherlink.com 1.10,2013-04-09 14:02:00,
2013-04-09 10:32:00,73.8,67.0,30.13,East,94,2.0,6.0,78,0.00,,,0.00,weatherlink.com 1.10,2013-04-09 14:32:00,
2013-04-09 10:47:00,75.9,68.0,30.13,ESE,108,2.0,7.0,76,0.00,,,0.00,weatherlink.com 1.10,2013-04-09 14:47:00,
2013-04-09 11:02:00,77.4,68.0,30.13,East,85,5.0,9.0,72,0.00,,,0.00,weatherlink.com 1.10,2013-04-09 15:02:00,
2013-04-09 11:17:00,78.3,69.0,30.13,ENE,75,5.0,10.0,72,0.00,,,0.00,weatherlink.com 1.10,2013-04-09 15:17:00,
2013-04-09 11:32:00,78.9,68.0,30.13,ENE,68,6.0,8.0,69,0.00,,,0.00,weatherlink.com 1.10,2013-04-09 15:32:00,
2013-04-09 11:47:00,79.2,67.0,30.13,East,99,4.0,11.0,66,0.00,,,0.00,weatherlink.com 1.10,2013-04-09 15:47:00,
2013-04-09 12:02:00,79.4,67.0,30.13,East,96,2.0,10.0,65,0.00,,,0.00,weatherlink.com 1.10,2013-04-09 16:02:00,
2013-04-09 12:17:00,80.2,66.0,30.13,East,82,5.0,9.0,63,0.00,,,0.00,weatherlink.com 1.10,2013-04-09 16:17:00,
2013-04-09 12:32:00,80.7,66.0,30.13,ENE,75,6.0,7.0,61,0.00,,,0.00,weatherlink.com 1.10,2013-04-09 16:32:00,
2013-04-09 12:47:00,81.7,65.0,30.12,ENE,77,5.0,7.0,58,0.00,,,0.00,weatherlink.com 1.10,2013-04-09 16:47:00,
2013-04-09 13:02:00,81.8,65.0,30.11,East,94,4.0,8.0,58,0.00,,,0.00,weatherlink.com 1.10,2013-04-09 17:02:00,
2013-04-09 13:17:00,82.7,65.0,30.10,ENE,75,4.0,8.0,56,0.00,,,0.00,weatherlink.com 1.10,2013-04-09 17:17:00,
2013-04-09 13:32:00,83.1,64.0,30.10,East,90,7.0,9.0,52,0.00,,,0.00,weatherlink.com 1.10,2013-04-09 17:32:00,
2013-04-09 13:47:00,83.6,66.0,30.09,ESE,114,5.0,9.0,55,0.00,,,0.00,weatherlink.com 1.10,2013-04-09 17:47:00,
2013-04-09 14:02:00,83.2,65.0,30.08,East,96,7.0,9.0,54,0.00,,,0.00,weatherlink.com 1.10,2013-04-09 18:02:00,
2013-04-09 14:17:00,82.5,64.0,30.08,East,89,3.0,10.0,54,0.00,,,0.00,weatherlink.com 1.10,2013-04-09 18:17:00,
2013-04-09 14:32:00,84.1,66.0,30.07,ESE,109,2.0,7.0,54,0.00,,,0.00,weatherlink.com 1.10,2013-04-09 18:32:00,
2013-04-09 14:47:00,84.0,64.0,30.07,NE,53,3.0,10.0,51,0.00,,,0.00,weatherlink.com 1.10,2013-04-09 18:47:00,
2013-04-09 15:02:00,85.2,64.0,30.07,South,174,4.0,8.0,50,0.00,,,0.00,weatherlink.com 1.10,2013-04-09 19:02:00,
2013-04-09 15:17:00,86.2,63.0,30.06,SE,144,4.0,11.0,46,0.00,,,0.00,weatherlink.com 1.10,2013-04-09 19:17:00,
2013-04-09 15:32:00,83.9,60.0,30.06,East,101,2.0,8.0,45,0.00,,,0.00,weatherlink.com 1.10,2013-04-09 19:32:00,
2013-04-09 15:48:00,85.4,61.0,30.05,ENE,63,4.0,8.0,44,0.00,,,0.00,weatherlink.com 1.10,2013-04-09 19:48:00,
2013-04-09 16:03:00,84.8,61.0,30.05,SE,134,2.0,7.0,45,0.00,,,0.00,weatherlink.com 1.10,2013-04-09 20:03:00,
2013-04-09 16:18:00,85.3,61.0,30.05,ENE,63,3.0,12.0,44,0.00,,,0.00,weatherlink.com 1.10,2013-04-09 20:18:00,
2013-04-09 16:33:00,84.8,62.0,30.05,ENE,68,3.0,5.0,46,0.00,,,0.00,weatherlink.com 1.10,2013-04-09 20:33:00,
2013-04-09 16:48:00,83.9,64.0,30.05,ESE,111,5.0,7.0,51,0.00,,,0.00,weatherlink.com 1.10,2013-04-09 20:48:00,
2013-04-09 17:03:00,81.8,68.0,30.05,WNW,297,8.0,10.0,64,0.00,,,0.00,weatherlink.com 1.10,2013-04-09 21:03:00,
2013-04-09 17:18:00,80.7,68.0,30.05,NW,307,3.0,6.0,66,0.00,,,0.00,weatherlink.com 1.10,2013-04-09 21:18:00,
2013-04-09 17:33:00,80.7,67.0,30.05,West,278,2.0,8.0,64,0.00,,,0.00,weatherlink.com 1.10,2013-04-09 21:33:00,
2013-04-09 17:48:00,80.1,67.0,30.05,WNW,288,3.0,7.0,64,0.00,,,0.00,weatherlink.com 1.10,2013-04-09 21:48:00,
2013-04-09 18:03:00,79.3,66.0,30.05,SW,218,0.0,6.0,64,0.00,,,0.00,weatherlink.com 1.10,2013-04-09 22:03:00,
2013-04-09 18:18:00,79.2,65.0,30.05,West,281,1.0,5.0,63,0.00,,,0.00,weatherlink.com 1.10,2013-04-09 22:18:00,
2013-04-09 18:33:00,79.3,65.0,30.05,WNW,294,1.0,3.0,61,0.00,,,0.00,weatherlink.com 1.10,2013-04-09 22:33:00,
2013-04-09 18:48:00,79.2,65.0,30.05,NW,304,0.0,2.0,61,0.00,,,0.00,weatherlink.com 1.10,2013-04-09 22:48:00,
2013-04-09 19:03:00,79.0,65.0,30.05,NNE,15,1.0,2.0,62,0.00,,,0.00,weatherlink.com 1.10,2013-04-09 23:03:00,
2013-04-09 19:18:00,78.7,64.0,30.06,NW,313,1.0,2.0,61,0.00,,,0.00,weatherlink.com 1.10,2013-04-09 23:18:00,
2013-04-09 19:33:00,78.6,65.0,30.06,NE,51,3.0,6.0,63,0.00,,,0.00,weatherlink.com 1.10,2013-04-09 23:33:00,
2013-04-09 19:48:00,78.5,65.0,30.06,East,96,5.0,11.0,63,0.00,,,0.00,weatherlink.com 1.10,2013-04-09 23:48:00,
2013-04-09 20:03:00,77.9,66.0,30.07,ENE,69,3.0,5.0,66,0.00,,,0.00,weatherlink.com 1.10,2013-04-10 00:03:00,
2013-04-09 20:18:00,77.6,65.0,30.07,East,85,2.0,8.0,66,0.00,,,0.00,weatherlink.com 1.10,2013-04-10 00:18:00,
2013-04-09 20:33:00,77.5,65.0,30.08,ENE,71,3.0,7.0,66,0.00,,,0.00,weatherlink.com 1.10,2013-04-10 00:33:00,
2013-04-09 20:48:00,77.1,65.0,30.07,East,92,5.0,8.0,67,0.00,,,0.00,weatherlink.com 1.10,2013-04-10 00:48:00,
2013-04-09 21:03:00,76.7,65.0,30.08,ESE,103,5.0,8.0,68,0.00,,,0.00,weatherlink.com 1.10,2013-04-10 01:03:00,
2013-04-09 21:18:00,76.5,65.0,30.08,East,89,3.0,7.0,68,0.00,,,0.00,weatherlink.com 1.10,2013-04-10 01:18:00,
2013-04-09 21:33:00,76.0,65.0,30.08,East,90,4.0,7.0,69,0.00,,,0.00,weatherlink.com 1.10,2013-04-10 01:33:00,
2013-04-09 21:48:00,75.6,65.0,30.10,ENE,70,4.0,6.0,70,0.00,,,0.00,weatherlink.com 1.10,2013-04-10 01:48:00,
2013-04-09 22:03:00,75.1,66.0,30.09,East,83,4.0,8.0,72,0.00,,,0.00,weatherlink.com 1.10,2013-04-10 02:03:00,
2013-04-09 22:18:00,74.8,66.0,30.09,East,85,6.0,10.0,73,0.00,,,0.00,weatherlink.com 1.10,2013-04-10 02:18:00,
2013-04-09 22:33:00,74.4,66.0,30.10,ESE,104,6.0,7.0,74,0.00,,,0.00,weatherlink.com 1.10,2013-04-10 02:33:00,
2013-04-09 22:48:00,74.0,66.0,30.10,East,94,6.0,8.0,75,0.00,,,0.00,weatherlink.com 1.10,2013-04-10 02:48:00,
2013-04-09 23:03:00,73.8,66.0,30.10,East,94,6.0,13.0,76,0.00,,,0.00,weatherlink.com 1.10,2013-04-10 03:03:00,
2013-04-09 23:18:00,73.3,66.0,30.10,East,80,4.0,7.0,77,0.00,,,0.00,weatherlink.com 1.10,2013-04-10 03:18:00,
2013-04-09 23:33:00,72.9,66.0,30.10,ESE,105,9.0,9.0,79,0.00,,,0.00,weatherlink.com 1.10,2013-04-10 03:33:00,
2013-04-09 23:48:00,72.5,66.0,30.10,ENE,77,4.0,8.0,81,0.00,,,0.00,weatherlink.com 1.10,2013-04-10 03:48:00,